Weather History for KGEV - January, 2014

Change the Weather History Date:

Monday, January 20, 2014

  Actual Average Record
Temperature  
Mean Temperature 41 °F -  
Max Temperature 50 °F 41 °F 62 °F (1988)
Min Temperature 33 °F 22 °F -11 °F (1985)
Degree Days  
Heating Degree Days 24    
Moisture  
Dew Point 13 °F    
Average Humidity 32    
Maximum Humidity 49    
Minimum Humidity 18    
Precipitation  
Precipitation 0.00 in - - ()
Sea Level Pressure  
Sea Level Pressure 29.82 in    
Wind  
Wind Speed 16 mph (West)    
Max Wind Speed 32 mph    
Max Gust Speed 51 mph    
Visibility 10 miles    
Events      
Averages and records for this station are not official NWS values.
T = Trace of Precipitation, MM = Missing Value Source: NWS Daily Summary

Daily Weather History Graph

Daily Weather History Graph

Search for Another Location

Airport or City:

Trip Planner

Search our weather history database for the weather conditions in past years. The results will help you decide how hot, cold, wet, or windy it might be!

Date:

Astronomy

Jan. 20, 2014 Rise Set
Actual Time 7:34 AM EST 5:39 PM EST
Civil Twilight 7:06 AM EST 6:06 PM EST
Nautical Twilight 6:35 AM EST 6:38 PM EST
Astronomical Twilight 6:04 AM EST 7:09 PM EST
Moon 10:03 PM EST (1/20) 9:41 AM EST (1/20)
Length of Visible Light 11h 00m
Length of Day
10h 04m
Waning Gibbous, 83% of the Moon is Illuminated
Jan 20
Waning Gibbous
Jan 24
Last Quarter
Jan 30
New
Feb 6
First Quarter
Feb 14
Full

Hourly Weather History & Observations

Time (EST) Temp. Windchill Dew Point Humidity Pressure Visibility Wind Dir Wind Speed Gust Speed Precip Events Conditions
12:15 AM 33.8 °F 22.2 °F 16.5 °F 49% 29.83 in 10.0 mi West 20.7 mph 25.3 mph N/A   Clear
12:35 AM 34.0 °F 25.5 °F 15.8 °F 47% 29.83 in 10.0 mi West 11.5 mph - N/A   Clear
12:55 AM 34.3 °F 25.0 °F 14.5 °F 44% 29.82 in 10.0 mi West 13.8 mph 19.6 mph N/A   Clear
1:15 AM 36.7 °F 27.6 °F 9.0 °F 32% 29.81 in 10.0 mi West 15.0 mph 23.0 mph N/A   Clear
1:35 AM 36.9 °F 27.5 °F 7.9 °F 30% 29.81 in 10.0 mi West 16.1 mph 25.3 mph N/A   Clear
1:55 AM 37.4 °F 26.9 °F 7.5 °F 29% 29.81 in 10.0 mi WSW 20.7 mph 31.1 mph N/A   Clear
2:15 AM 38.3 °F 29.7 °F 4.6 °F 25% 29.82 in 10.0 mi West 15.0 mph 19.6 mph N/A   Clear
2:35 AM 38.7 °F 30.9 °F 2.1 °F 22% 29.82 in 10.0 mi West 12.7 mph - N/A   Clear
2:55 AM 38.7 °F 30.5 °F 1.9 °F 21% 29.82 in 10.0 mi West 13.8 mph 17.3 mph N/A   Clear
3:15 AM 39.9 °F 31.4 °F -0.8 °F 18% 29.83 in 10.0 mi West 16.1 mph 23.0 mph N/A   Clear
3:35 AM 40.1 °F 32.0 °F -0.6 °F 18% 29.83 in 10.0 mi West 15.0 mph 23.0 mph N/A   Clear
3:55 AM 38.3 °F 30.9 °F 3.4 °F 23% 29.83 in 10.0 mi West 11.5 mph 27.6 mph N/A   Clear
4:15 AM 37.6 °F 28.8 °F 5.2 °F 26% 29.82 in 10.0 mi West 15.0 mph 26.5 mph N/A   Clear
4:35 AM 37.4 °F 26.9 °F 6.4 °F 28% 29.82 in 10.0 mi West 20.7 mph 31.1 mph N/A   Clear
4:55 AM 36.9 °F 27.8 °F 7.7 °F 30% 29.81 in 10.0 mi West 15.0 mph 39.1 mph N/A   Clear
5:15 AM 36.5 °F 26.3 °F 9.1 °F 32% 29.80 in 10.0 mi West 18.4 mph 33.4 mph N/A   Clear
5:40 AM 36.0 °F 24.4 °F 10.4 °F 35% 29.81 in 10.0 mi West 23.0 mph 35.7 mph N/A   Clear
5:55 AM 36.0 °F 23.0 °F 10.9 °F 36% 29.80 in 10.0 mi West 29.9 mph 50.6 mph N/A   Clear
6:15 AM 36.1 °F 25.2 °F 10.6 °F 35% 29.80 in 10.0 mi WNW 20.7 mph 42.6 mph N/A   Clear
6:35 AM 36.1 °F 24.7 °F 10.8 °F 35% 29.79 in 10.0 mi West 23.0 mph 44.9 mph N/A   Clear
6:55 AM 36.5 °F 24.0 °F 10.8 °F 35% 29.79 in 10.0 mi West 28.8 mph 48.3 mph N/A   Clear
7:15 AM 37.2 °F 25.4 °F 10.9 °F 34% 29.78 in 10.0 mi West 26.5 mph 44.9 mph N/A   Clear
7:35 AM 36.7 °F 26.9 °F 10.9 °F 35% 29.80 in 10.0 mi West 17.3 mph 34.5 mph N/A   Clear
7:55 AM 36.5 °F 24.2 °F 11.3 °F 35% 29.80 in 10.0 mi West 27.6 mph 39.1 mph N/A   Clear
8:15 AM 36.5 °F 23.3 °F 12.0 °F 37% 29.80 in 10.0 mi West 32.2 mph 39.1 mph N/A   Clear
8:35 AM 36.7 °F 24.4 °F 12.2 °F 37% 29.81 in 10.0 mi West 27.6 mph 35.7 mph N/A   Clear
8:55 AM 36.5 °F 26.3 °F 12.6 °F 37% 29.81 in 10.0 mi West 18.4 mph 38.0 mph N/A   Clear
9:15 AM 37.8 °F 28.6 °F 13.1 °F 36% 29.82 in 10.0 mi West 16.1 mph 29.9 mph N/A   Clear
9:35 AM 38.5 °F 28.9 °F 13.5 °F 36% 29.82 in 10.0 mi West 18.4 mph 32.2 mph N/A   Clear
9:55 AM 39.2 °F 31.2 °F 14.0 °F 36% 29.83 in 10.0 mi West 13.8 mph 29.9 mph N/A   Clear
10:15 AM 39.9 °F 31.8 °F 14.5 °F 36% 29.83 in 10.0 mi West 15.0 mph 23.0 mph N/A   Clear
10:35 AM 41.0 °F 32.5 °F 14.9 °F 35% 29.83 in 10.0 mi West 17.3 mph 29.9 mph N/A   Clear
10:55 AM 41.4 °F 34.3 °F 15.3 °F 35% 29.84 in 10.0 mi West 12.7 mph 28.8 mph N/A   Clear
11:15 AM 42.8 °F 38.0 °F 15.4 °F 33% 29.84 in 10.0 mi West 8.1 mph 18.4 mph N/A   Clear
11:35 AM 44.2 °F 38.4 °F 15.6 °F 32% 29.83 in 10.0 mi West 11.5 mph - N/A   Clear
11:55 AM 44.8 °F 38.3 °F 15.8 °F 31% 29.83 in 10.0 mi West 13.8 mph 21.9 mph N/A   Clear
12:15 PM 45.7 °F 38.8 °F 16.3 °F 31% 29.83 in 10.0 mi West 16.1 mph 21.9 mph N/A   Clear
12:35 PM 46.2 °F 39.8 °F 16.3 °F 30% 29.82 in 10.0 mi West 15.0 mph 21.9 mph N/A   Clear
12:55 PM 47.3 °F - 16.5 °F 29% 29.81 in 10.0 mi West 13.8 mph - N/A   Clear
1:15 PM 48.2 °F - 16.7 °F 29% 29.80 in 10.0 mi WNW 11.5 mph - N/A   Clear
1:35 PM 49.6 °F - 17.2 °F 28% 29.80 in 10.0 mi West 9.2 mph 17.3 mph N/A   Clear
1:55 PM 49.8 °F - 17.1 °F 27% 29.80 in 10.0 mi West 10.4 mph 17.3 mph N/A   Clear
2:15 PM 49.3 °F - 15.6 °F 26% 29.79 in 10.0 mi West 11.5 mph 27.6 mph N/A   Clear
2:35 PM 49.1 °F - 15.3 °F 26% 29.79 in 10.0 mi West 13.8 mph 32.2 mph N/A   Clear
2:55 PM 49.5 °F - 14.7 °F 25% 29.79 in 10.0 mi West 12.7 mph 24.2 mph N/A   Clear
3:15 PM 49.6 °F - 14.5 °F 25% 29.79 in 10.0 mi WNW 12.7 mph 19.6 mph N/A   Clear
3:35 PM 49.5 °F - 14.7 °F 25% 29.80 in 10.0 mi West 12.7 mph 19.6 mph N/A   Clear
3:55 PM 49.3 °F - 14.9 °F 25% 29.80 in 10.0 mi West 13.8 mph 23.0 mph N/A   Clear
4:15 PM 49.1 °F - 14.7 °F 25% 29.81 in 10.0 mi West 6.9 mph 23.0 mph N/A   Clear
4:35 PM 49.3 °F - 14.5 °F 25% 29.81 in 10.0 mi West 9.2 mph 23.0 mph N/A   Clear
4:55 PM 48.7 °F - 14.0 °F 25% 29.82 in 10.0 mi West 6.9 mph - N/A   Clear
5:15 PM 47.7 °F - 13.6 °F 26% 29.82 in 10.0 mi West 9.2 mph 16.1 mph N/A   Clear
5:35 PM 46.6 °F - 14.5 °F 28% 29.83 in 10.0 mi West 11.5 mph 16.1 mph N/A   Clear
5:55 PM 46.0 °F 39.6 °F 14.5 °F 28% 29.84 in 10.0 mi West 15.0 mph - N/A   Clear
6:15 PM 45.5 °F 38.9 °F 15.4 °F 30% 29.84 in 10.0 mi West 15.0 mph 18.4 mph N/A   Clear
6:35 PM 45.3 °F 39.0 °F 15.6 °F 30% 29.84 in 10.0 mi West 13.8 mph - N/A   Clear
6:55 PM 44.8 °F 38.0 °F 16.3 °F 32% 29.84 in 10.0 mi West 15.0 mph - N/A   Clear
7:15 PM 44.6 °F 37.8 °F 16.5 °F 32% 29.84 in 10.0 mi West 15.0 mph 20.7 mph N/A   Clear
7:35 PM 44.2 °F 38.0 °F 16.7 °F 33% 29.84 in 10.0 mi West 12.7 mph - N/A   Clear
7:55 PM 44.1 °F 39.0 °F 16.2 °F 33% 29.84 in 10.0 mi West 9.2 mph - N/A   Clear
8:15 PM 43.7 °F 38.6 °F 16.5 °F 34% 29.84 in 10.0 mi West 9.2 mph - N/A   Clear
8:35 PM 43.2 °F 37.9 °F 16.5 °F 34% 29.84 in 10.0 mi West 9.2 mph - N/A   Clear
8:55 PM 43.5 °F 38.9 °F 16.7 °F 34% 29.84 in 10.0 mi West 8.1 mph - N/A   Clear
9:15 PM 42.1 °F 38.4 °F 16.9 °F 36% 29.83 in 10.0 mi West 5.8 mph - N/A   Clear
9:35 PM 39.7 °F 37.6 °F 17.4 °F 41% 29.83 in 10.0 mi SW 3.5 mph - N/A   Clear
9:55 PM 40.1 °F 38.0 °F 17.8 °F 41% 29.83 in 10.0 mi SW 3.5 mph - N/A   Clear
10:15 PM 41.4 °F 37.6 °F 18.0 °F 39% 29.82 in 10.0 mi WSW 5.8 mph - N/A   Clear
10:35 PM 42.1 °F 37.7 °F 17.6 °F 37% 29.82 in 10.0 mi West 6.9 mph - N/A   Clear
10:55 PM 41.9 °F 39.0 °F 17.6 °F 38% 29.81 in 10.0 mi West 4.6 mph - N/A   Clear
11:15 PM 42.1 °F 37.1 °F 17.1 °F 37% 29.80 in 10.0 mi West 8.1 mph - N/A   Clear
11:35 PM 42.4 °F 38.1 °F 16.7 °F 35% 29.79 in 10.0 mi West 6.9 mph - N/A   Clear
11:55 PM 41.7 °F 38.8 °F 17.6 °F 38% 29.79 in 10.0 mi WSW 4.6 mph - N/A   Clear